Starlink 4040

operational
NORAD ID: 53151 Int'l Des: 2022-083 Owner: SPXS Country: US Constellation: starlink
LEOCIRCULAR

Über Starlink 4040

Beschreibung wird geladen...

Live-Position

3D-Globus wird geladen...

Nächste Überflüge

Höhenverlauf

Altitude vs Time

uPlot chart will show altitude changes over time

Zweizeiliger Elementsatz

1 53151U 22083V 25354.84254650 -.00001493 00000-0 -75740-4 0 9999
2 53151 53.2184 158.0769 0001673 91.4561 268.6623 15.08835653189453
Epoch: 20. Dez. 2025 • Age: 9 hours

Aktueller Status

Höhe 550.5 km
Geschwindigkeit 7.59 km/s
Subsatellitenpunkt -32.31°S, 162.8°W
Startdatum 17. Juli 2022
Alter 3.4 years
Typ internet

Technische Details

Klassifizierung Payload
Masse 297.00 kg
Trockenmasse 275.00 kg
Gesamtmasse 297.00 kg
Länge 0.20 m
Durchmesser 2.80 m
Spannweite 9.00 m
Form Box + pan
Hersteller SPXS
Bus-Typ Starlink
Phasenstatus In Orbit
Besitzer/Staat SPXS/US

Große Konstellationen

Loading constellations...